Hourly Weather Aaruti

Today, 21 October, Wednesday

Time Temperature Precipitation Wind Pressure Humidity
00:00 +8°C° 0 mm 1 mps 717 mmHg 71%
01:00 +8°C° 0 mm 1 mps 716 mmHg 71%
02:00 +7°C° 0 mm 1 mps 716 mmHg 72%
03:00 +7°C° 0 mm 1 mps 715 mmHg 73%
04:00 +6°C° 0 mm 0 mps 715 mmHg 74%
05:00 +6°C° 0 mm 0 mps 715 mmHg 75%
06:00 +6°C° 0 mm 0 mps 715 mmHg 76%
07:00 +6°C° 0 mm 0 mps 715 mmHg 77%
08:00 +8°C° 0 mm 0 mps 715 mmHg 71%
09:00 +11°C° 0 mm 1 mps 716 mmHg 66%
10:00 +14°C° 0 mm 1 mps 716 mmHg 60%
11:00 +15°C° 0 mm 1 mps 716 mmHg 57%
12:00 +18°C° 0 mm 1 mps 717 mmHg 54%
13:00 +20°C° 0 mm 1 mps 717 mmHg 51%
14:00 +19°C° 0 mm 1 mps 717 mmHg 56%
15:00 +19°C° 0 mm 1 mps 717 mmHg 61%
16:00 +18°C° 0 mm 1 mps 717 mmHg 66%
17:00 +16°C° 0 mm 1 mps 717 mmHg 68%
18:00 +15°C° 0 mm 1 mps 717 mmHg 70%
19:00 +13°C° 0 mm 1 mps 718 mmHg 72%
20:00 +12°C° 0 mm 1 mps 718 mmHg 73%
21:00 +12°C° 0 mm 1 mps 719 mmHg 74%
22:00 +11°C° 0 mm 1 mps 719 mmHg 75%
23:00 +11°C° 0 mm 1 mps 719 mmHg 76%

Tomorrow, 22 October, Thursday

Time Temperature Precipitation Wind Pressure Humidity
00:00 +10°C° 0 mm 1 mps 719 mmHg 76%
01:00 +9°C° 0 mm 0 mps 719 mmHg 77%
02:00 +9°C° 0 mm 0 mps 719 mmHg 77%
03:00 +9°C° 0 mm 0 mps 719 mmHg 77%
04:00 +9°C° 0 mm 0 mps 719 mmHg 77%
05:00 +8°C° 0 mm 0 mps 719 mmHg 78%
06:00 +8°C° 0 mm 0 mps 719 mmHg 78%
07:00 +8°C° 0 mm 0 mps 719 mmHg 78%
08:00 +10°C° 0 mm 0 mps 719 mmHg 73%
09:00 +11°C° 0 mm 0 mps 719 mmHg 69%
10:00 +13°C° 0 mm 0 mps 720 mmHg 64%
11:00 +14°C° 0 mm 1 mps 720 mmHg 63%
12:00 +15°C° 0 mm 1 mps 720 mmHg 62%
13:00 +16°C° 0 mm 1 mps 720 mmHg 62%
14:00 +15°C° 0.1 mm 1 mps 720 mmHg 67%
15:00 +15°C° 0.1 mm 1 mps 719 mmHg 72%
16:00 +14°C° 0.1 mm 1 mps 719 mmHg 78%
17:00 +14°C° 0.1 mm 1 mps 719 mmHg 79%
18:00 +13°C° 0.1 mm 1 mps 719 mmHg 80%
19:00 +13°C° 0.1 mm 1 mps 719 mmHg 81%
20:00 +12°C° 0 mm 1 mps 719 mmHg 83%
21:00 +12°C° 0 mm 1 mps 719 mmHg 85%
22:00 +11°C° 0 mm 1 mps 719 mmHg 86%
23:00 +12°C° 0 mm 1 mps 719 mmHg 85%

Day after tomorrow, 23 October, Friday

Time Temperature Precipitation Wind Pressure Humidity
00:00 +12°C° 0 mm 1 mps 719 mmHg 84%
01:00 +12°C° 0 mm 1 mps 718 mmHg 82%
02:00 +12°C° 0.3 mm 1 mps 718 mmHg 86%
03:00 +12°C° 0.3 mm 1 mps 718 mmHg 89%
04:00 +12°C° 0.3 mm 1 mps 718 mmHg 93%
05:00 +11°C° 0.7 mm 1 mps 718 mmHg 94%
06:00 +11°C° 0.7 mm 1 mps 717 mmHg 94%
07:00 +11°C° 0.7 mm 1 mps 717 mmHg 95%
08:00 +12°C° 1.5 mm 1 mps 717 mmHg 96%
09:00 +12°C° 1.5 mm 1 mps 717 mmHg 96%
10:00 +11°C° 1.5 mm 0 mps 717 mmHg 97%
11:00 +12°C° 1.8 mm 1 mps 717 mmHg 97%
12:00 +13°C° 1.8 mm 1 mps 718 mmHg 97%
13:00 +13°C° 1.8 mm 1 mps 718 mmHg 97%
14:00 +13°C° 1.2 mm 1 mps 718 mmHg 97%
15:00 +13°C° 1.2 mm 2 mps 718 mmHg 96%
16:00 +13°C° 1.2 mm 2 mps 718 mmHg 96%
17:00 +13°C° 0.2 mm 2 mps 718 mmHg 96%
18:00 +13°C° 0.2 mm 2 mps 719 mmHg 96%
19:00 +12°C° 0.2 mm 2 mps 719 mmHg 95%
20:00 +12°C° 0.1 mm 2 mps 719 mmHg 95%
21:00 +12°C° 0.1 mm 1 mps 719 mmHg 94%
22:00 +12°C° 0.1 mm 1 mps 720 mmHg 94%
23:00 +11°C° 0 mm 1 mps 720 mmHg 94%

24 October, Saturday

Time Temperature Precipitation Wind Pressure Humidity
00:00 +11°C° 0 mm 1 mps 720 mmHg 95%
01:00 +10°C° 0 mm 1 mps 720 mmHg 95%
02:00 +10°C° 0 mm 1 mps 720 mmHg 95%
03:00 +10°C° 0 mm 1 mps 720 mmHg 95%
04:00 +9°C° 0 mm 1 mps 720 mmHg 95%
05:00 +9°C° 0 mm 1 mps 721 mmHg 95%
06:00 +9°C° 0 mm 1 mps 721 mmHg 95%
07:00 +9°C° 0 mm 1 mps 721 mmHg 95%
08:00 +10°C° 0 mm 1 mps 721 mmHg 92%
09:00 +10°C° 0 mm 2 mps 721 mmHg 89%
10:00 +12°C° 0 mm 2 mps 722 mmHg 86%
11:00 +13°C° 0 mm 2 mps 721 mmHg 81%
12:00 +14°C° 0 mm 2 mps 721 mmHg 77%
13:00 +15°C° 0 mm 2 mps 721 mmHg 72%
14:00 +15°C° 0 mm 1 mps 721 mmHg 73%
15:00 +15°C° 0 mm 1 mps 721 mmHg 74%
16:00 +15°C° 0 mm 1 mps 720 mmHg 75%
17:00 +13°C° 0 mm 1 mps 720 mmHg 81%
18:00 +10°C° 0 mm 0 mps 720 mmHg 86%
19:00 +9°C° 0 mm 0 mps 720 mmHg 91%
20:00 +8°C° 0 mm 0 mps 720 mmHg 92%
21:00 +8°C° 0 mm 0 mps 720 mmHg 93%
22:00 +8°C° 0 mm 0 mps 720 mmHg 93%
23:00 +7°C° 0 mm 0 mps 719 mmHg 93%

25 October, Sunday

Time Temperature Precipitation Wind Pressure Humidity
00:00 +7°C° 0 mm 0 mps 719 mmHg 94%
01:00 +7°C° 0 mm 0 mps 719 mmHg 94%
02:00 +7°C° 0 mm 0 mps 718 mmHg 94%
03:00 +7°C° 0 mm 0 mps 718 mmHg 94%
04:00 +6°C° 0 mm 0 mps 717 mmHg 94%
05:00 +6°C° 0 mm 0 mps 717 mmHg 94%
06:00 +6°C° 0 mm 0 mps 716 mmHg 94%
07:00 +6°C° 0 mm 0 mps 716 mmHg 94%
08:00 +8°C° 0 mm 0 mps 716 mmHg 87%
09:00 +10°C° 0 mm 0 mps 716 mmHg 81%
10:00 +12°C° 0 mm 0 mps 715 mmHg 74%
11:00 +13°C° 0 mm 0 mps 715 mmHg 68%
12:00 +15°C° 0 mm 0 mps 715 mmHg 62%
13:00 +17°C° 0 mm 0 mps 714 mmHg 56%
14:00 +18°C° 0 mm 1 mps 714 mmHg 61%
15:00 +16°C° 0 mm 1 mps 714 mmHg 66%
16:00 +15°C° 0 mm 1 mps 713 mmHg 71%
17:00 +14°C° 0 mm 1 mps 713 mmHg 75%
18:00 +12°C° 0 mm 1 mps 713 mmHg 78%
19:00 +11°C° 0 mm 1 mps 713 mmHg 82%
20:00 +11°C° 0 mm 1 mps 713 mmHg 81%
21:00 +10°C° 0 mm 2 mps 714 mmHg 80%
22:00 +10°C° 0 mm 2 mps 714 mmHg 79%
23:00 +10°C° 0.4 mm 2 mps 714 mmHg 84%

26 October, Monday

Time Temperature Precipitation Wind Pressure Humidity
00:00 +9°C° 0.4 mm 2 mps 713 mmHg 88%
01:00 +8°C° 0.4 mm 2 mps 713 mmHg 93%
02:00 +8°C° 1.2 mm 2 mps 713 mmHg 94%
03:00 +7°C° 1.2 mm 2 mps 713 mmHg 94%
04:00 +7°C° 1.2 mm 2 mps 713 mmHg 95%
05:00 +7°C° 0.4 mm 2 mps 713 mmHg 95%
06:00 +7°C° 0.4 mm 2 mps 713 mmHg 95%
07:00 +6°C° 0.4 mm 2 mps 713 mmHg 95%
08:00 +7°C° 0.4 mm 2 mps 713 mmHg 93%
09:00 +7°C° 0.4 mm 2 mps 713 mmHg 92%
10:00 +7°C° 0.4 mm 2 mps 713 mmHg 91%
11:00 +7°C° 0.5 mm 2 mps 713 mmHg 90%
12:00 +7°C° 0.5 mm 2 mps 713 mmHg 89%
13:00 +9°C° 0.5 mm 1 mps 713 mmHg 89%
14:00 +8°C° 0.5 mm 1 mps 713 mmHg 90%
15:00 +8°C° 0.5 mm 1 mps 713 mmHg 91%
16:00 +8°C° 0.5 mm 1 mps 713 mmHg 91%
17:00 +8°C° 0.1 mm 1 mps 713 mmHg 93%
18:00 +7°C° 0.1 mm 1 mps 713 mmHg 94%
19:00 +6°C° 0.1 mm 1 mps 713 mmHg 96%
20:00 +6°C° 0 mm 1 mps 713 mmHg 95%
21:00 +5°C° 0 mm 0 mps 714 mmHg 95%
22:00 +5°C° 0 mm 0 mps 714 mmHg 95%
23:00 +5°C° 0 mm 0 mps 714 mmHg 95%

27 October, Tuesday

Time Temperature Precipitation Wind Pressure Humidity
00:00 +5°C° 0 mm 0 mps 714 mmHg 95%
01:00 +5°C° 0 mm 0 mps 714 mmHg 95%
02:00 +5°C° 0 mm 0 mps 714 mmHg 95%
03:00 +4°C° 0 mm 0 mps 714 mmHg 95%
04:00 +4°C° 0 mm 0 mps 714 mmHg 95%
05:00 +4°C° 0 mm 0 mps 715 mmHg 95%
06:00 +4°C° 0 mm 0 mps 715 mmHg 95%
07:00 +4°C° 0 mm 0 mps 715 mmHg 95%
08:00 +5°C° 0 mm 0 mps 716 mmHg 92%
09:00 +6°C° 0 mm 0 mps 716 mmHg 89%
10:00 +7°C° 0 mm 0 mps 716 mmHg 86%
11:00 +8°C° 0.1 mm 0 mps 717 mmHg 81%
12:00 +9°C° 0.1 mm 0 mps 717 mmHg 76%
13:00 +10°C° 0.1 mm 0 mps 717 mmHg 71%
14:00 +10°C° 0.1 mm 0 mps 717 mmHg 74%
15:00 +9°C° 0.1 mm 0 mps 717 mmHg 76%
16:00 +9°C° 0.1 mm 0 mps 717 mmHg 79%
17:00 +7°C° 0 mm 0 mps 717 mmHg 83%
18:00 +6°C° 0 mm 0 mps 718 mmHg 88%
19:00 +5°C° 0 mm 0 mps 718 mmHg 92%
20:00 +4°C° 0 mm 0 mps 718 mmHg 92%
21:00 +4°C° 0 mm 0 mps 718 mmHg 93%
22:00 +4°C° 0 mm 0 mps 719 mmHg 93%
23:00 +4°C° 0 mm 0 mps 719 mmHg 93%
Show more